Regional Weather Roundup
Issued by NWS

Home | Current Version | Previous Version | Text Only | Print | Product List | Glossary Off
Versions: 1 2 3 4 5 6 7 8 9 10 11 12 13 14 15 16 17 18 19 20 21 22 23 24 25 26 27

000
ASUS45 KSLC 180210
RWRUT

UTAH REGIONAL WEATHER ROUNDUP
NATIONAL WEATHER SERVICE SALT LAKE CITY UT
800 PM MDT THU APR 17 2014

UTZ001>011-023>025-180300-

NORTHERN UTAH

CITY           SKY/WX    TMP DP  RH WIND       PRES   REMARKS
HILL AFB       CLEAR     63  25  23 S7        29.88F
LOGAN          CLEAR     62  32  32 CALM      29.87F
OGDEN          CLEAR     65  26  23 SE5       29.86F
PROVO AIRPORT  CLEAR     68  32  26 E5        29.90S
SALT LAKE CITY PTCLDY    68  26  20 S12       29.85F
VERNAL         PTCLDY    59  23  25 SE3       29.95S
WENDOVER       MOCLDY    66  28  24 NE6       29.80F
HEBER CITY     CLEAR     55  28  35 SW6       29.94S
WEST JORDAN    CLEAR     63  36  36 S10       29.88F

$$

UTZ012>022-026-027-180300-

SOUTHERN UTAH

CITY           SKY/WX    TMP DP  RH WIND       PRES   REMARKS
BRYCE CANYON   CLEAR     55  22  27 SW9       30.08R
CEDAR CITY     CLEAR     65  19  17 SW10      29.96R
MILFORD        CLEAR     70  19  14 SW22      29.89R
MOAB/CYNLANDS  CLEAR     66  21  18 SE6       29.94S
PRICE          CLEAR     60  17  18 E10       30.00R
ST GEORGE      CLEAR     81  25  12 W9        29.83S

$$

REGIONAL REPORTS     COLORADO/ARIZONA

CITY           SKY/WX    TMP DP  RH WIND       PRES   REMARKS
CRAIG, CO      CLEAR     50  24  36 W3        30.01S
GRAND JUNCTION CLEAR     59  22  24 N5        29.99R
RIFLE          CLEAR     56  23  27 W8        30.01R
MONTROSE       CLEAR     62  22  21 CALM      30.04R
CORTEZ         CLEAR     57  22  25 S3        30.07S
PAGE, AZ       CLEAR     74  26  16 NE6       29.90S
GRAND CANYON   MOCLDY    65  18  16 SW10      30.07R
KINGMAN        MOCLDY    76  12   8 SW12      29.91R
FLAGSTAFF      PTCLDY    58  19  22 SW9       30.11S

$$

REGIONAL REPORTS    NEVADA/IDAHO/WYOMING

CITY           SKY/WX    TMP DP  RH WIND       PRES   REMARKS
LAS VEGAS, NV  MOCLDY    85  18   8 S22G32    29.73R
ELY            CLEAR     65  20  17 S14G25    29.90F
ELKO           PTCLDY    70  27  20 NW8       29.76S
POCATELLO, ID  PTCLDY    62  25  24 S17       29.82F
BURLEY         PTCLDY    65  30  27 S10       29.73F
EVANSTON, WY   CLEAR     52  24  33 W12       29.99S
ROCK SPRINGS   PTCLDY    54  18  24 W7        29.97S

$$



USA.gov is the U.S. government's official web portal to all federal, state and local government web resources and services.